Погода в Туркменабаде

Туркменистан     39°03′16″N   63°34′50″E
темп.,
°C
ветер,
м/с
пор.,
м/с
влажн.,
%
обл.,
%
осадки,
мм/ч
давл.,
гПа
погр.,
м
11 апреля, вс
вс1123:00+23ссв48310 0.0 1016214
02:00+21ссв46320 0.0 1015129
05:00+19ссв46370 0.0 1016101
08:00+18св79380 0.0 1018280
11:00+22св78260 0.0 1018658
14:00+26ссв76150 0.0 10171342
17:00+25ссв87100 0.0 10161364
20:00+21ссв99170 0.0 10181004
12 апреля, пн
пн1223:00+18св810220 0.0 1019653
02:00+14ссв811300 0.0 1019493
05:00+13ссв712370 0.0 1019427
08:00+13св71039100 0.0 1020422
11:00+18ссв77257 0.0 1020694
14:00+23ссв67145 0.0 10181179
17:00+24ссв661598 0.0 10171521
20:00+22ссв561892 0.0 10181235
13 апреля, вт
вт1323:00+21ссв3521100 0.0 1019427
02:00+19ссв46255 0.0 1018193
05:00+16ссв34295 0.0 101981
08:00+17ссв463179 0.0 1021284
11:00+20ссв442219 0.0 1021920
14:00+23ссв33170 0.0 10201467
17:00+24ссв44160 0.0 10181838
20:00+23ссв45180 0.0 1018620
14 апреля, ср
ср1423:00+21св45210 0.0 1018129
02:00+19ссв33265 0.0 101746
05:00+17св33280 0.0 101643
08:00+18св34240 0.0 1016170
11:00+22всв22190 0.0 10161005
14:00+25с11143 0.0 10141772
17:00+26с331011 0.0 10122073
20:00+24с5513100 0.0 1012543
15 апреля, чт
чт1523:00+21ссв6922100 0.0 1013367
02:00+19ссв5926100 0.0 1012252
05:00+17св47305 0.0 1012165
08:00+18св353078 0.0 1013242
11:00+22ссз3322100 0.0 1014852
14:00+25зсз451692 0.0 10141525
17:00+25сз6616100 0.0 10131664
20:00+24с44197 0.0 1013614